Location: Newark
(40.9833°N, 0.0333°W)
Time: 02:09:09
(UTC+00:00)

Altair - Pass Details

Date: 05 November 2020
Orbit: 1502 x 1682 km, 47.2° (Epoch: 02 December)

Event Time Altitude Azimuth Distance (km) Brightness Sun altitude
Rises 04:34:26 0° 261° (W) 4,635 - -23.3°
Reaches altitude 10° 04:37:29 10° 264° (W) 3,662 - -22.7°
Exits shadow 04:42:03 33° 275° (W) 2,328 7.9 -21.8°
Maximum altitude 04:46:39 66° 346° (NNW) 1,652 7.5 -21.0°
Drops below altitude 10° 04:56:09 10° 69° (ENE) 3,777 10.5 -19.2°
Sets 04:59:20 0° 72° (ENE) 4,787 11.3 -18.6°
